Flag for U.S.A. Weather past 2 weeks in Colorado Springs, Colorado, U.S.A.

Now
34 °F

Passing clouds.


Feels Like: 31 °F
Forecast: 31 / 51 °F
Wind: 3 mph from South

Location: City Of Colorado Springs Municipal Airport

Current Time: Jan 25, 2015 at 9:40:37 AM

Latest Report: Jan 25, 2015 at 8:54 AM


Visibility: 10 mi

Pressure: 30.23 "Hg

Humidity: 76%

Dew point: 27 °F

Location of Colorado SpringsLocation

Historic Weather in Colorado Springs — Graph

°F

Colorado Springs temperature yesterday

Maximum temperature yesterday: 53 °F (at 2:54 PM)
Minimum temperature yesterday: 24 °F (at 2:54 AM)
Average temperature yesterday: 39 °F

Past Weeks' High & Low Weather Summary

 TemperatureHumidityPressure
High57 °F (Jan 18, 10:54 AM)100% (Jan 20, 3:01 PM)30.57 "Hg (Jan 20, 3:01 PM)
Low5 °F (Jan 22, 7:54 AM)13% (Jan 18, 5:54 AM)29.82 "Hg (Jan 16, 7:54 PM)
Average33 °F61%30.22 "Hg
* Reported Jan 10 7:54 AM — Jan 25 7:54 AM, Colorado Springs, Weather by CustomWeather, © 2014

Note: Actual official high and low records may vary slightly from our data, if they occured in-between our weather recording intervals... More about our weather records

Advertising

Colorado Springs weather history for previous 24 hours

 ConditionsComfort  
Time TempWeatherWind HumidityBarometerVisibility
7:54 AM
Jan 25
29 °FPassing clouds.No wind79%30.25 "Hg10 mi
6:54 AM30 °FPassing clouds.5 mph79%30.26 "Hg10 mi
5:54 AM28 °FClear.3 mph85%30.22 "Hg10 mi
4:54 AM29 °FClear.3 mph82%30.20 "Hg10 mi
3:54 AM31 °FClear.3 mph73%30.15 "Hg10 mi
2:54 AM36 °FClear.No wind59%30.09 "Hg10 mi
1:54 AM33 °FClear.16 mph72%30.11 "Hg10 mi
12:54 AM33 °FClear.18 mph72%30.11 "Hg10 mi
11:54 PM
Jan 24
34 °FPassing clouds.18 mph70%30.12 "Hg10 mi
10:54 PM36 °FPassing clouds.14 mph62%30.11 "Hg10 mi
9:54 PM40 °FPassing clouds.13 mph51%30.09 "Hg10 mi
8:54 PM42 °FPassing clouds.15 mph47%30.09 "Hg10 mi
7:54 PM40 °FPassing clouds.12 mph51%30.12 "Hg10 mi
6:54 PM40 °FPassing clouds.9 mph49%30.13 "Hg10 mi
5:54 PM46 °FOvercast.14 mph35%30.07 "Hg10 mi
4:54 PM46 °FOvercast.12 mph35%30.06 "Hg10 mi
3:54 PM48 °FMore clouds than sun.10 mph32%30.05 "Hg10 mi
2:54 PM53 °FMostly cloudy.9 mph22%30.01 "Hg10 mi
1:54 PM50 °FMostly cloudy.No wind28%30.01 "Hg10 mi
12:54 PM52 °FBroken clouds.6 mph19%30.02 "Hg10 mi
11:54 AM52 °FMostly cloudy.7 mph21%30.05 "Hg10 mi
10:54 AM50 °FMostly cloudy.7 mph21%30.09 "Hg10 mi
9:54 AM46 °FCloudy.8 mph24%30.10 "Hg10 mi
Weather by CustomWeather, © 2014

See weather overviewHow to use our weather pages